Weather History for Fort Polk, LA

Change the Weather History Date:

Sunday, May 4, 2014

  Actual Average (KPOE) Record (KPOE)
Temperature  
Mean Temperature 71 °F -  
Max Temperature 90 °F 80 °F 88 °F (2012)
Min Temperature 54 °F 61 °F 39 °F (2013)
Cooling Degree Days 6    
Growing Degree Days 21 (Base 50)    
Moisture  
Dew Point 51 °F    
Average Humidity 53    
Maximum Humidity 90    
Minimum Humidity 25    
Precipitation  
Precipitation 0.00 in - - ()
Sea Level Pressure  
Sea Level Pressure 30.14 in    
Wind  
Wind Speed 2 mph (SSW)    
Max Wind Speed 8 mph    
Max Gust Speed -    
Visibility 9 miles    
Events      
Averages and records for this station are not official NWS values.
T = Trace of Precipitation, MM = Missing Value Source: NWS Daily Summary

Daily Weather History Graph

Daily Weather History Graph

Search for Another Location

Airport:

Trip Planner

Search our weather history database for the weather conditions in past years. The results will help you decide how hot, cold, wet, or windy it might be!

Date:

Astronomy

May. 04, 2014 Rise Set
Actual Time 6:24 AM CDT 7:52 PM CDT
Civil Twilight 5:58 AM CDT 8:18 PM CDT
Nautical Twilight 5:27 AM CDT 8:49 PM CDT
Astronomical Twilight 4:55 AM CDT 9:21 PM CDT
Moon 10:50 AM CDT (5/4) No Moon Set
Length of Visible Light 14h 19m
Length of Day
13h 28m
Waxing Crescent, 28% of the Moon is Illuminated
May 4
Waxing Crescent
May 6
First Quarter
May 14
Full
May 21
Last Quarter
May 28
New

Hourly Weather History & Observations

Time (CDT) Temp. Dew Point Humidity Pressure Visibility Wind Dir Wind Speed Gust Speed Precip Events Conditions
12:54 AM 61.0 °F 54.0 °F 78% 30.16 in 10.0 mi Calm Calm - N/A   Clear
1:54 AM 59.0 °F 54.0 °F 83% 30.15 in 10.0 mi Calm Calm - N/A   Clear
2:54 AM 57.9 °F 54.0 °F 87% 30.14 in 10.0 mi Calm Calm - N/A   Clear
3:54 AM 57.0 °F 53.1 °F 87% 30.15 in 10.0 mi Calm Calm - N/A   Clear
4:54 AM 55.9 °F 53.1 °F 90% 30.16 in 5.0 mi Calm Calm - N/A   Clear
5:54 AM 55.0 °F 52.0 °F 89% 30.17 in 4.0 mi Calm Calm - N/A   Clear
6:54 AM 54.0 °F 51.1 °F 90% 30.19 in 4.0 mi Calm Calm - N/A   Clear
7:54 AM 63.0 °F 57.0 °F 81% 30.19 in 10.0 mi Calm Calm - N/A   Clear
8:54 AM 71.1 °F 55.0 °F 57% 30.19 in 10.0 mi Variable 4.6 mph - N/A   Clear
9:54 AM 75.9 °F 51.1 °F 42% 30.20 in 10.0 mi Variable 5.8 mph - N/A   Clear
10:54 AM 80.1 °F 48.0 °F 32% 30.20 in 10.0 mi Variable 5.8 mph - N/A   Clear
11:54 AM 82.0 °F 46.9 °F 29% 30.19 in 10.0 mi Variable 6.9 mph - N/A   Clear
12:54 PM 84.9 °F 46.0 °F 26% 30.16 in 10.0 mi Variable 3.5 mph - N/A   Clear
1:54 PM 87.1 °F 48.0 °F 26% 30.14 in 10.0 mi SSW 8.1 mph - N/A   Clear
2:54 PM 88.0 °F 48.0 °F 25% 30.12 in 10.0 mi Variable 5.8 mph - N/A   Clear
3:54 PM 88.0 °F 48.9 °F 26% 30.10 in 10.0 mi South 8.1 mph - N/A   Clear
4:54 PM 88.0 °F 48.9 °F 26% 30.09 in 10.0 mi South 8.1 mph - N/A   Clear
5:54 PM 87.1 °F 50.0 °F 28% 30.08 in 10.0 mi SSW 6.9 mph - N/A   Clear
6:54 PM 82.9 °F 52.0 °F 34% 30.08 in 10.0 mi Variable 5.8 mph - N/A   Clear
7:54 PM 77.0 °F 50.0 °F 39% 30.09 in 10.0 mi South 3.5 mph - N/A   Clear
8:54 PM 73.9 °F 48.0 °F 40% 30.11 in 10.0 mi Variable 3.5 mph - N/A   Clear
9:54 PM 70.0 °F 48.9 °F 47% 30.13 in 10.0 mi Variable 3.5 mph - N/A   Clear
10:54 PM 66.9 °F 50.0 °F 54% 30.14 in 10.0 mi Variable 3.5 mph - N/A   Clear
11:54 PM 63.0 °F 51.1 °F 65% 30.14 in 10.0 mi Variable 3.5 mph - N/A   Clear